991  
ASUS46 KOTX 080110  
RWROTX  
 
EASTERN WASHINGTON/NORTHERN IDAHO ROUNDUP  
NATIONAL WEATHER SERVICE, SPOKANE WA  
600 PM PDT SUN AUG 07 2022  
 
NOTE: "FAIR" INDICATED FEW OR NO CLOUDS BELOW 12,000 FEET WITH NO  
SIGNIFICANT WEATHER AND/OR S TO VISIBILITY
.  
   
..NORTHEAST WASHINGTON AND NORTHERN IDAHO PANHANDLE
 
 
 
CITY SKY/WX TMP DP RH WIND PRES REMARKS
 
SPOKANE INTL SUNNY 90 37 15 NW5 30.04F  
SPOKANE DOWNTO SUNNY 92 38 15 SW5 30.02F  
COEUR D ALENE SUNNY 88 41 19 NW8 30.05F  
DEER PARK SUNNY 90 42 18 E7 30.03F  
SANDPOINT SUNNY 88 37 16 SW5 30.04F  
BONNERS FERRY FAIR 86 45 23 S7 30.01F  
   
..SOUTHEAST WASHINGTON AND SOUTHERN IDAHO PANHANDLE
 
 
 
CITY SKY/WX TMP DP RH WIND PRES REMARKS
 
WALLA WALLA SUNNY 95 32 11 W7 29.95F HX 90  
PULLMAN/MOSCOW SUNNY 87 32 14 CALM 30.08F  
LEWISTON SUNNY 95 35 12 N6 29.97F HX 90  
LOWELL N/A 79 45 29 CALM 29.99F  
GRANGEVILLE FAIR 84 32 15 E12G18 30.10F  
   
..COLUMBIA BASIN
 
 
 
CITY SKY/WX TMP DP RH WIND PRES REMARKS
 
EPHRATA SUNNY 92 37 14 S8 29.97F  
MOSES LAKE SUNNY 92 34 13 SW7 29.98F  
PASCO SUNNY 93 54 26 N8 29.92F HX 91  
RICHLAND CLEAR 97 29 9 CALM 29.92F HX 91  
HERMISTON SUNNY 98 30 9 NE6 29.93F HX 92  
PENDLETON SUNNY 97 34 11 NW9 29.97F HX 91  
   
..EAST SLOPES CASCADES
 
 
 
CITY SKY/WX TMP DP RH WIND PRES REMARKS
 
THE DALLES SUNNY 102 31 8 N7 29.88F HX 95  
YAKIMA SUNNY 92 36 14 S5 29.97F  
ELLENSBURG SUNNY 94 43 17 NE7 29.99F HX 90  
STAMPEDE PASS SUNNY 80 50 34 MISG 30.15F  
WENATCHEE SUNNY 89 43 20 SE9 29.95F  
WINTHROP FAIR 94 42 16 S9 29.96F HX 90  
OMAK SUNNY 97 37 12 S9 29.94F HX 92  
SUNNYSIDE CLEAR 92 48 21 CALM 29.95F  
   
..SOUTHERN BRITISH COLUMBIA
 
 
 
CITY SKY/WX TMP DP RH WIND PRES REMARKS
 
PENTICTON SUNNY 86 55 35 N8 29.90F  
CASTLEGAR MOSUNNY 93 48 21 S10 29.95F HX 90  
CRANBROOK SUNNY 90 43 19 NW9G17 30.00S  
OSOYOOS N/A 95 45 17 SE5 N/A HX 91  
CRESTON N/A 88 54 31 W3 N/A  
   
..WESTERN MONTANA
 
 
 
CITY SKY/WX TMP DP RH WIND PRES REMARKS
 
KALISPELL CLEAR 84 41 21 SE9 30.04F  
LIBBY N/A 90 37 15 SW5 30.02S  
MISSOULA SUNNY 89 40 17 SW3 30.07F  
   
..NEIGHBORING CITIES
 
 
 
CITY SKY/WX TMP DP RH WIND PRES REMARKS
 
SEATTLE MOSUNNY 88 53 30 N9 29.97F  
PORTLAND MOSUNNY 98 52 21 NW8 29.86F HX 95  
BOISE SUNNY 94 30 10 NW10G20 30.05F  
GREAT FALLS SUNNY 86 35 16 VRB5 30.05F  
CALGARY MOSUNNY 84 46 26 S8 29.94F  
 
CLICK HERE TO GO TO PREVIOUS BULLETINS.

The Nexlab WA Page
The Nexlab ID Page Main Text Page